UWWWUWKD

Guest
Details From UWWW - KURUMOCH
To UWKD - KAZAN
Flight Number -
Tags generated
Created
Modified
Stats Distance 131 nm / 242 km
Max Altitude 14,600 ft / 4,450 m
Waypoints 3
Social Downloads 3
Likes 0
Share VATSIM

Download

Looking for another format? Having issues loading an existing format? Contact us
Advertisement - Login to hide

Notes

Basic altitude profile: - Ascent Rate: 2500ft/min - Ascent Speed: 250kts - Cruise Altitude: 35000ft - Cruise Speed: 420kts - Descent Rate: 1500ft/min - Descent Speed: 250kts Options: - Use NATs: no - Use PACOTS: no - Use low airways: yes - Use high airways: yes

Route

UWWW A368 GINUK UWKD

ID Type Via Altitude Latitude Longitude Leg Dist Tot Dist Heading (true) Name
O UWWW APT - 0 ft / 0 m 53.50490˚ 50.16443˚ - 0 nm - KURUMOCH
GINUK FIX A368 (AWY-LO) 14,600 ft / 4,450 m 54.23333˚ 50.06500˚ 43 nm 43 nm 355° / 355° -
O UWKD APT - 0 ft / 0 m 55.60654˚ 49.27969˚ 86 nm 130 nm 342° / 341° KAZAN

Altitude Profile

Advertisement - Login to hide

UWWW

Details ICAO UWWW (KBY)
Name KURUMOCH
Region Russia
Timezone Europe/Samara (UTC+4.0)
Stats Elevation 477 ft / 145 m (AMSL)
Location 53.504905° 50.164434°
Runways 2
Magnetic Variation 12.135° E

METAR

UWWW 140600Z 18007MPS 9000 -SG OVC007 M03/M04 Q1026 R23/490535 NOSIG RMK QFE758/1011

Decode

TAF

TAF UWWW 140500Z 1406/1506 17009G15MPS 3100 -SNRA BR OVC007 TXM02/1411Z TNM07/1502Z TEMPO 1406/1415 18017MPS 0500 +SNRA FZDZ FZFG OVC002 FM141500 17007G13MPS 3100 -SN BR OVC011 TEMPO 1415/1506 18015MPS 2100 -SN OVC005

Decode

Departure Runways

ID Width Length Bearing (true) Bearing (mag) Surface Threshold Offset Overrun Length
05 197 ft / 60 m 8,483 ft / 2,586 m 61.70° 49.56° Asphalt 0 ft / 0 m 75 ft / 23 m
15 148 ft / 45 m 9,845 ft / 3,001 m 160.00° 147.86° Concrete 0 ft / 0 m 175 ft / 53 m
23 197 ft / 60 m 8,483 ft / 2,586 m 241.73° 229.59° Asphalt 0 ft / 0 m 180 ft / 55 m
33 148 ft / 45 m 9,845 ft / 3,001 m 340.01° 327.87° Concrete 0 ft / 0 m 175 ft / 53 m

UWKD

Details ICAO UWKD (KZN)
Name KAZAN
Region Russia
Timezone Europe/Moscow (UTC+3.0)
Stats Elevation 411 ft / 125 m (AMSL)
Location 55.606544° 49.279689°
Runways 2
Magnetic Variation 13.287° E

METAR

UWKD 140600Z 16006MPS 8000 -FZRA OVC006 M00/M01 Q1021 R11/7/0030 TEMPO 1000 SNRA FZRA RMK QFE755/1007

Decode

TAF

TAF UWKD 140455Z 1406/1506 16007G12MPS 3100 -SNRA BR OVC005 TX00/1411Z TNM02/1406Z TEMPO 1406/1412 0700 +SNRA FZRA OVC002 TEMPO 1412/1421 18010G15MPS 1000 SHRASN BKN003 BKN010CB

Decode

Destination Runways

ID Width Length Bearing (true) Bearing (mag) Surface Threshold Offset Overrun Length
11L 144 ft / 44 m 12,189 ft / 3,715 m 126.46° 113.17° Concrete 837 ft / 255 m 0 ft / 0 m
11R 148 ft / 45 m 8,174 ft / 2,492 m 124.48° 111.19° Concrete 0 ft / 0 m 180 ft / 55 m
29L 148 ft / 45 m 8,174 ft / 2,492 m 304.51° 291.22° Concrete 0 ft / 0 m 180 ft / 55 m
29R 144 ft / 44 m 12,189 ft / 3,715 m 306.50° 293.21° Concrete 0 ft / 0 m 160 ft / 49 m

Popular Alternatives